Change the Weather History Date:

Tuesday, June 3, 2014

  Actual Average (KTUP) Record (KTUP)
Temperature  
Mean Temperature 76 °F 75 °F  
Max Temperature 85 °F 86 °F 97 °F (2011)
Min Temperature 68 °F 65 °F 43 °F (1969)
Degree Days  
Heating Degree Days 0 0  
Month to date heating degree days 0  
Since 1 June heating degree days 0  
Since 1 July heating degree days 2956  
Cooling Degree Days 10 10  
Month to date cooling degree days 30  
Year to date cooling degree days 307  
Since 1 June cooling degree days 30  
Growing Degree Days 26 (Base 50)    
Moisture  
Dew Point 70 °F    
Average Humidity 87    
Maximum Humidity 99    
Minimum Humidity 68    
Precipitation  
Precipitation 0.59 in 0.16 in 2.01 in (1957)
Month to date precipitation 0.47  
Year to date precipitation 25.07  
Snow  
Snow 0.00 in 0.00 in - ()
Month to date snowfall 0.0  
Since 1 June snowfall 0.0  
Since 1 July snowfall 2.1  
Snow Depth -    
Sea Level Pressure  
Sea Level Pressure 30.06 in    
Wind  
Wind Speed 3 mph (South)    
Max Wind Speed 9 mph    
Max Gust Speed 17 mph    
Visibility 9 miles    
Events Rain    
T = Trace of Precipitation, MM = Missing Value Source: NWS Daily Summary

Daily Weather History Graph

Daily Weather History Graph

Search for Another Location

Airport or City:

Trip Planner

Search our weather history database for the weather conditions in past years. The results will help you decide how hot, cold, wet, or windy it might be!

Date:

Astronomy

Jun. 03, 2014 Rise Set
Actual Time 5:40 AM CDT 8:01 PM CDT
Civil Twilight 5:11 AM CDT 8:30 PM CDT
Nautical Twilight 4:36 AM CDT 9:06 PM CDT
Astronomical Twilight 3:57 AM CDT 9:45 PM CDT
Moon 10:55 AM CDT (6/3) No Moon Set
Length of Visible Light 15h 18m
Length of Day
14h 20m
Waxing Crescent, 30% of the Moon is Illuminated
Jun 3
Waxing Crescent
Jun 5
First Quarter
Jun 12
Full
Jun 19
Last Quarter
Jun 27
New

Hourly Weather History & Observations

Time (CDT) Temp. Heat Index Dew Point Humidity Pressure Visibility Wind Dir Wind Speed Gust Speed Precip Events Conditions
12:15 AM 69.4 °F - 67.1 °F 92% 30.11 in 10.0 mi SSE 4.6 mph - N/A   Clear
12:35 AM 69.4 °F - 67.1 °F 92% 30.11 in 10.0 mi SSE 3.5 mph - N/A   Mostly Cloudy
12:55 AM 69.8 °F - 67.1 °F 91% 30.11 in 10.0 mi SSE 4.6 mph - N/A   Overcast
1:15 AM 69.8 °F - 66.7 °F 90% 30.11 in 10.0 mi South 5.8 mph - N/A   Overcast
1:35 AM 69.4 °F - 66.6 °F 91% 30.10 in 10.0 mi South 4.6 mph - N/A   Overcast
1:55 AM 68.9 °F - 66.4 °F 92% 30.10 in 10.0 mi South 3.5 mph - N/A   Scattered Clouds
2:15 AM 68.5 °F - 66.2 °F 92% 30.09 in 10.0 mi SSE 4.6 mph - N/A   Clear
2:35 AM 68.7 °F - 66.2 °F 92% 30.10 in 10.0 mi Calm Calm - N/A   Mostly Cloudy
2:55 AM 68.9 °F - 66.4 °F 92% 30.10 in 10.0 mi SSE 3.5 mph - N/A   Overcast
3:15 AM 68.9 °F - 66.4 °F 92% 30.09 in 10.0 mi Calm Calm - N/A   Overcast
3:35 AM 68.5 °F - 66.4 °F 93% 30.09 in 10.0 mi Calm Calm - N/A   Overcast
3:55 AM 68.9 °F - 66.4 °F 92% 30.09 in 10.0 mi South 3.5 mph - N/A   Overcast
4:15 AM 68.9 °F - 66.4 °F 92% 30.09 in 10.0 mi South 4.6 mph - N/A   Overcast
4:35 AM 68.9 °F - 66.4 °F 92% 30.08 in 10.0 mi SSE 3.5 mph - N/A   Overcast
4:55 AM 68.9 °F - 66.4 °F 92% 30.09 in 10.0 mi South 3.5 mph - N/A   Overcast
5:15 AM 68.9 °F - 66.4 °F 92% 30.09 in 10.0 mi South 5.8 mph - N/A   Overcast
5:35 AM 68.7 °F - 66.4 °F 92% 30.10 in 10.0 mi South 4.6 mph - N/A   Overcast
5:55 AM 68.9 °F - 66.6 °F 92% 30.10 in 10.0 mi South 5.8 mph - N/A   Overcast
6:15 AM 68.9 °F - 66.6 °F 92% 30.10 in 10.0 mi South 4.6 mph - N/A   Overcast
6:35 AM 68.9 °F - 66.7 °F 93% 30.11 in 10.0 mi South 4.6 mph - N/A   Overcast
6:55 AM 69.1 °F - 67.1 °F 93% 30.11 in 10.0 mi Calm Calm - N/A   Overcast
7:15 AM 70.0 °F - 67.3 °F 91% 30.11 in 10.0 mi South 8.1 mph - N/A   Overcast
7:35 AM 70.0 °F - 67.3 °F 91% 30.11 in 10.0 mi South 6.9 mph - N/A   Overcast
7:55 AM 70.7 °F - 68.0 °F 91% 30.12 in 10.0 mi SSW 5.8 mph - N/A   Overcast
8:15 AM 71.6 °F - 68.5 °F 90% 30.13 in 10.0 mi SSW 4.6 mph - N/A   Overcast
8:35 AM 72.1 °F - 68.7 °F 89% 30.13 in 10.0 mi SSW 4.6 mph - N/A   Overcast
8:55 AM 73.0 °F - 69.1 °F 87% 30.13 in 10.0 mi South 5.8 mph - N/A   Overcast
9:15 AM 73.8 °F - 69.6 °F 87% 30.12 in 10.0 mi SSW 3.5 mph - N/A   Overcast
9:35 AM 74.8 °F - 69.8 °F 84% 30.12 in 10.0 mi SSW 4.6 mph - N/A   Overcast
9:55 AM 75.4 °F - 70.3 °F 84% 30.12 in 10.0 mi WSW 4.6 mph - N/A   Overcast
10:15 AM 77.2 °F - 70.5 °F 80% 30.11 in 10.0 mi SW 6.9 mph - N/A   Overcast
10:35 AM 77.2 °F - 71.2 °F 82% 30.12 in 10.0 mi Calm Calm - N/A   Overcast
10:55 AM 77.2 °F - 71.1 °F 81% 30.11 in 10.0 mi SW 4.6 mph - N/A   Overcast
11:15 AM 79.0 °F - 72.0 °F 79% 30.11 in 10.0 mi SW 4.6 mph - N/A   Overcast
11:35 AM 79.3 °F - 72.1 °F 79% 30.11 in 10.0 mi Calm Calm - N/A   Mostly Cloudy
11:55 AM 80.4 °F 84.4 °F 72.0 °F 75% 30.09 in 10.0 mi West 3.5 mph - N/A   Mostly Cloudy
12:15 PM 81.3 °F 86.1 °F 72.9 °F 75% 30.09 in 10.0 mi SSW 4.6 mph - N/A   Mostly Cloudy
12:35 PM 81.5 °F 85.9 °F 71.6 °F 72% 30.08 in 10.0 mi WNW 3.5 mph - N/A   Scattered Clouds
12:55 PM 82.9 °F 87.7 °F 71.6 °F 68% 30.07 in 10.0 mi SW 3.5 mph - N/A   Clear
1:15 PM 81.9 °F 86.2 °F 71.2 °F 70% 30.07 in 10.0 mi Calm Calm - N/A   Mostly Cloudy
1:35 PM 81.1 °F 85.4 °F 71.6 °F 73% 30.06 in 10.0 mi Calm Calm - N/A   Overcast
1:55 PM 81.3 °F 85.8 °F 71.8 °F 73% 30.06 in 10.0 mi West 3.5 mph - N/A   Overcast
2:15 PM 81.5 °F 86.1 °F 72.1 °F 73% 30.05 in 10.0 mi Calm Calm - N/A Rain Rain
2:35 PM 81.5 °F 85.7 °F 71.4 °F 71% 30.04 in 10.0 mi Calm Calm - N/A   Scattered Clouds
2:55 PM 83.1 °F 88.6 °F 72.3 °F 70% 30.03 in 10.0 mi West 3.5 mph - N/A   Clear
3:15 PM 83.8 °F 89.5 °F 72.1 °F 68% 30.03 in 10.0 mi Calm Calm - N/A   Clear
3:35 PM 83.1 °F 88.9 °F 72.9 °F 71% 30.03 in 10.0 mi SE 9.2 mph - N/A   Mostly Cloudy
3:55 PM 79.7 °F - 72.0 °F 77% 30.03 in 10.0 mi ESE 5.8 mph - N/A   Scattered Clouds
4:15 PM 78.8 °F - 72.0 °F 79% 30.02 in 7.0 mi Calm Calm - 0.01 in Rain Heavy Rain
4:35 PM 75.4 °F - 72.9 °F 92% 30.03 in 1.0 mi West 9.2 mph 17.3 mph 0.39 in Rain Heavy Rain
4:55 PM 73.8 °F - 71.4 °F 92% 30.02 in 4.0 mi NW 3.5 mph - 0.57 in Rain Rain
5:15 PM 74.5 °F - 72.3 °F 93% 30.02 in 7.0 mi Calm Calm - 0.01 in Rain Light Rain
5:35 PM 76.1 °F - 72.0 °F 87% 30.01 in 10.0 mi Calm Calm - 0.02 in   Overcast
5:55 PM 75.9 °F - 72.9 °F 90% 30.00 in 10.0 mi SE 3.5 mph - 0.02 in   Overcast
6:15 PM 76.5 °F - 74.7 °F 94% 30.00 in 10.0 mi Calm Calm - N/A   Overcast
6:35 PM 77.5 °F - 75.7 °F 94% 29.99 in 10.0 mi SSE 3.5 mph - N/A   Mostly Cloudy
6:55 PM 78.3 °F - 74.3 °F 88% 29.99 in 10.0 mi Calm Calm - N/A   Scattered Clouds
7:15 PM 77.9 °F - 73.6 °F 86% 30.00 in 10.0 mi SE 3.5 mph - N/A   Clear
7:35 PM 77.0 °F - 73.2 °F 88% 30.00 in 10.0 mi Calm Calm - N/A   Clear
8:15 PM 74.8 °F - 72.7 °F 93% 30.00 in 10.0 mi Calm Calm - N/A   Clear
8:35 PM 75.2 °F - 72.9 °F 92% 30.00 in 10.0 mi Calm Calm - N/A   Clear
8:55 PM 74.3 °F - 72.9 °F 95% 29.99 in 10.0 mi Calm Calm - N/A   Clear
9:15 PM 74.3 °F - 72.7 °F 95% 30.00 in 10.0 mi Calm Calm - N/A   Clear
9:35 PM 73.0 °F - 72.5 °F 98% 30.00 in 5.0 mi Calm Calm - N/A   Clear
9:55 PM 72.3 °F - 71.8 °F 98% 30.00 in 4.0 mi Calm Calm - N/A   Clear
10:15 PM 72.5 °F - 72.1 °F 99% 30.01 in 4.0 mi Calm Calm - N/A   Clear
10:35 PM 72.5 °F - 72.0 °F 98% 30.00 in 7.0 mi Calm Calm - N/A   Clear
10:55 PM 71.6 °F - 71.1 °F 98% 30.00 in 5.0 mi Calm Calm - N/A   Clear
11:15 PM 72.0 °F - 71.6 °F 99% 30.00 in 7.0 mi Calm Calm - N/A   Clear
11:35 PM 71.8 °F - 71.2 °F 98% 30.00 in 7.0 mi Calm Calm - N/A   Scattered Clouds
11:55 PM 71.8 °F - 70.9 °F 97% 29.99 in 7.0 mi Calm Calm - N/A   Scattered Clouds